Time,TemperatureF,DewpointF,PressureIn,WindDirection,WindDirectionDegrees,WindSpeedMPH,WindSpeedGustMPH,Humidity,HourlyPrecipIn,Conditions,Clouds,dailyrainin,SolarRadiationWatts/m^2,SoftwareType,DateUTC
2013-05-27 00:09:00,50.0,43.0,30.18,ENE,60,0.0,4.0,77,0.00,,,0.00,0,weatherlink.com 1.10,2013-05-27 05:09:00,
2013-05-27 00:24:00,50.5,43.0,30.17,NE,52,0.0,2.0,76,0.00,,,0.00,0,weatherlink.com 1.10,2013-05-27 05:24:00,
2013-05-27 00:39:00,50.6,44.0,30.16,NNE,26,1.0,3.0,77,0.00,,,0.00,0,weatherlink.com 1.10,2013-05-27 05:39:00,
2013-05-27 00:54:00,50.5,44.0,30.15,NE,46,1.0,2.0,78,0.00,,,0.00,0,weatherlink.com 1.10,2013-05-27 05:54:00,
2013-05-27 01:09:00,50.9,44.0,30.15,NE,46,0.0,2.0,78,0.00,,,0.00,0,weatherlink.com 1.10,2013-05-27 06:09:00,
2013-05-27 01:24:00,51.2,45.0,30.14,NE,46,0.0,1.0,78,0.00,,,0.00,0,weatherlink.com 1.10,2013-05-27 06:24:00,
2013-05-27 01:39:00,51.7,45.0,30.14,NE,46,0.0,2.0,77,0.00,,,0.00,0,weatherlink.com 1.10,2013-05-27 06:39:00,
2013-05-27 01:54:00,51.9,44.0,30.13,NE,48,0.0,2.0,75,0.00,,,0.00,0,weatherlink.com 1.10,2013-05-27 06:54:00,
2013-05-27 02:09:00,52.1,44.0,30.12,ENE,62,0.0,2.0,73,0.00,,,0.00,0,weatherlink.com 1.10,2013-05-27 07:09:00,
2013-05-27 02:24:00,51.8,44.0,30.12,ENE,65,0.0,2.0,74,0.00,,,0.00,0,weatherlink.com 1.10,2013-05-27 07:24:00,
2013-05-27 02:39:00,51.3,44.0,30.11,ENE,65,0.0,2.0,76,0.00,,,0.00,0,weatherlink.com 1.10,2013-05-27 07:39:00,
2013-05-27 02:54:00,50.8,44.0,30.10,East,88,0.0,3.0,78,0.00,,,0.00,0,weatherlink.com 1.10,2013-05-27 07:54:00,
2013-05-27 03:09:00,50.2,44.0,30.10,ESE,122,0.0,2.0,80,0.00,,,0.00,0,weatherlink.com 1.10,2013-05-27 08:09:00,
2013-05-27 03:24:00,50.0,44.0,30.10,SE,132,0.0,2.0,81,0.00,,,0.00,0,weatherlink.com 1.10,2013-05-27 08:24:00,
2013-05-27 03:39:00,50.3,45.0,30.09,SE,132,1.0,1.0,81,0.00,,,0.00,0,weatherlink.com 1.10,2013-05-27 08:39:00,
2013-05-27 03:54:00,50.8,45.0,30.09,ESE,121,0.0,2.0,80,0.00,,,0.00,0,weatherlink.com 1.10,2013-05-27 08:54:00,
2013-05-27 04:09:00,51.3,45.0,30.09,South,177,0.0,3.0,79,0.00,,,0.00,0,weatherlink.com 1.10,2013-05-27 09:09:00,
2013-05-27 04:24:00,52.0,45.0,30.08,SSW,200,1.0,2.0,76,0.00,,,0.00,0,weatherlink.com 1.10,2013-05-27 09:24:00,
2013-05-27 04:39:00,52.3,44.0,30.09,South,186,1.0,4.0,73,0.00,,,0.00,0,weatherlink.com 1.10,2013-05-27 09:39:00,
2013-05-27 04:54:00,52.6,44.0,30.09,SE,135,0.0,6.0,72,0.00,,,0.00,0,weatherlink.com 1.10,2013-05-27 09:54:00,
2013-05-27 05:09:00,53.0,44.0,30.09,SSW,192,0.0,2.0,71,0.00,,,0.00,0,weatherlink.com 1.10,2013-05-27 10:09:00,
2013-05-27 05:24:00,52.7,44.0,30.08,South,175,1.0,4.0,71,0.00,,,0.00,0,weatherlink.com 1.10,2013-05-27 10:24:00,
2013-05-27 05:39:00,51.5,45.0,30.07,South,181,2.0,5.0,77,0.00,,,0.00,0,weatherlink.com 1.10,2013-05-27 10:39:00,
2013-05-27 05:54:00,50.9,45.0,30.08,South,186,4.0,4.0,79,0.00,,,0.00,5,weatherlink.com 1.10,2013-05-27 10:54:00,
2013-05-27 06:09:00,51.0,45.0,30.09,South,182,1.0,5.0,80,0.00,,,0.00,7,weatherlink.com 1.10,2013-05-27 11:09:00,
2013-05-27 06:24:00,51.0,44.0,30.09,South,176,2.0,7.0,78,0.00,,,0.00,11,weatherlink.com 1.10,2013-05-27 11:24:00,
2013-05-27 06:40:00,51.2,45.0,30.09,SSW,194,7.0,10.0,78,0.00,,,0.00,18,weatherlink.com 1.10,2013-05-27 11:40:00,
2013-05-27 06:55:00,51.4,46.0,30.09,SSE,159,0.0,4.0,82,0.00,,,0.00,19,weatherlink.com 1.10,2013-05-27 11:55:00,
2013-05-27 07:10:00,51.8,48.0,30.10,SE,127,0.0,5.0,85,0.00,,,0.00,26,weatherlink.com 1.10,2013-05-27 12:10:00,
2013-05-27 07:25:00,51.3,48.0,30.09,SSE,153,0.0,4.0,87,0.00,,,0.00,28,weatherlink.com 1.10,2013-05-27 12:25:00,
2013-05-27 07:40:00,51.8,48.0,30.10,South,178,0.0,4.0,87,0.00,,,0.00,46,weatherlink.com 1.10,2013-05-27 12:40:00,
2013-05-27 07:55:00,51.9,48.0,30.10,South,186,1.0,5.0,87,0.00,,,0.00,42,weatherlink.com 1.10,2013-05-27 12:55:00,
2013-05-27 08:10:00,51.3,48.0,30.10,South,176,1.0,4.0,88,0.00,,,0.00,30,weatherlink.com 1.10,2013-05-27 13:10:00,
2013-05-27 08:25:00,50.4,48.0,30.10,South,182,0.0,4.0,91,0.00,,,0.00,23,weatherlink.com 1.10,2013-05-27 13:25:00,
2013-05-27 08:40:00,50.0,48.0,30.10,SSE,155,0.0,4.0,93,0.00,,,0.00,30,weatherlink.com 1.10,2013-05-27 13:40:00,
2013-05-27 08:55:00,49.6,48.0,30.09,ENE,74,0.0,4.0,94,0.00,,,0.00,37,weatherlink.com 1.10,2013-05-27 13:55:00,
2013-05-27 09:10:00,49.9,48.0,30.09,SE,129,0.0,4.0,94,0.01,,,0.01,35,weatherlink.com 1.10,2013-05-27 14:10:00,
2013-05-27 09:25:00,50.1,49.0,30.08,SSE,153,0.0,3.0,95,0.01,,,0.01,37,weatherlink.com 1.10,2013-05-27 14:25:00,
2013-05-27 09:40:00,50.1,49.0,30.07,SSE,148,1.0,5.0,95,0.01,,,0.01,56,weatherlink.com 1.10,2013-05-27 14:40:00,
2013-05-27 09:55:00,50.0,49.0,30.06,NNE,32,1.0,3.0,95,0.01,,,0.01,51,weatherlink.com 1.10,2013-05-27 14:55:00,
2013-05-27 10:10:00,49.9,49.0,30.05,South,182,0.0,3.0,96,0.01,,,0.02,60,weatherlink.com 1.10,2013-05-27 15:10:00,
2013-05-27 10:25:00,49.8,49.0,30.04,SSE,165,0.0,2.0,96,0.01,,,0.02,56,weatherlink.com 1.10,2013-05-27 15:25:00,
2013-05-27 10:40:00,49.8,49.0,30.05,South,181,1.0,2.0,96,0.02,,,0.03,60,weatherlink.com 1.10,2013-05-27 15:40:00,
2013-05-27 10:55:00,49.5,48.0,30.04,ENE,73,0.0,4.0,96,0.02,,,0.03,53,weatherlink.com 1.10,2013-05-27 15:55:00,
2013-05-27 11:10:00,49.2,48.0,30.03,South,189,1.0,4.0,96,0.01,,,0.03,63,weatherlink.com 1.10,2013-05-27 16:10:00,
2013-05-27 11:25:00,49.5,48.0,30.04,ENE,76,0.0,4.0,96,0.02,,,0.04,58,weatherlink.com 1.10,2013-05-27 16:25:00,
2013-05-27 11:40:00,49.5,49.0,30.04,South,184,0.0,3.0,97,0.01,,,0.04,47,weatherlink.com 1.10,2013-05-27 16:40:00,
2013-05-27 11:55:00,49.5,49.0,30.05,South,174,0.0,5.0,97,0.01,,,0.04,54,weatherlink.com 1.10,2013-05-27 16:55:00,
2013-05-27 12:10:00,49.5,49.0,30.05,SE,136,0.0,4.0,97,0.01,,,0.04,67,weatherlink.com 1.10,2013-05-27 17:10:00,
2013-05-27 12:25:00,49.4,49.0,30.04,SSW,207,0.0,3.0,97,0.00,,,0.04,69,weatherlink.com 1.10,2013-05-27 17:25:00,
2013-05-27 12:40:00,49.2,48.0,30.03,South,174,0.0,4.0,97,0.00,,,0.04,74,weatherlink.com 1.10,2013-05-27 17:40:00,
2013-05-27 12:55:00,49.4,49.0,30.03,WSW,251,2.0,3.0,97,0.00,,,0.04,109,weatherlink.com 1.10,2013-05-27 17:55:00,
2013-05-27 13:10:00,49.1,48.0,30.04,SSE,152,2.0,4.0,97,0.00,,,0.04,83,weatherlink.com 1.10,2013-05-27 18:10:00,
2013-05-27 13:25:00,49.0,48.0,30.03,SSE,159,0.0,4.0,97,0.00,,,0.04,81,weatherlink.com 1.10,2013-05-27 18:25:00,
2013-05-27 13:40:00,49.7,49.0,30.03,SSE,155,1.0,4.0,97,0.00,,,0.04,93,weatherlink.com 1.10,2013-05-27 18:40:00,
2013-05-27 13:55:00,49.3,49.0,30.03,East,96,5.0,5.0,97,0.00,,,0.04,93,weatherlink.com 1.10,2013-05-27 18:55:00,
2013-05-27 14:10:00,49.4,49.0,30.02,SSW,196,0.0,3.0,97,0.00,,,0.04,114,weatherlink.com 1.10,2013-05-27 19:10:00,
2013-05-27 14:25:00,49.1,48.0,30.01,ESE,121,3.0,5.0,97,0.00,,,0.04,81,weatherlink.com 1.10,2013-05-27 19:25:00,
2013-05-27 14:40:00,48.8,48.0,30.00,SSE,151,2.0,7.0,97,0.00,,,0.04,105,weatherlink.com 1.10,2013-05-27 19:40:00,
2013-05-27 14:55:00,48.5,48.0,30.00,East,79,2.0,6.0,96,0.00,,,0.04,67,weatherlink.com 1.10,2013-05-27 19:55:00,
2013-05-27 15:10:00,48.6,48.0,30.00,ENE,57,1.0,6.0,97,0.00,,,0.04,79,weatherlink.com 1.10,2013-05-27 20:10:00,
2013-05-27 15:25:00,48.9,48.0,29.99,East,80,5.0,7.0,97,0.00,,,0.04,84,weatherlink.com 1.10,2013-05-27 20:25:00,
2013-05-27 15:41:00,48.8,48.0,29.98,South,174,1.0,6.0,97,0.00,,,0.04,90,weatherlink.com 1.10,2013-05-27 20:41:00,
2013-05-27 15:56:00,48.8,48.0,29.98,SSW,200,1.0,5.0,97,0.00,,,0.04,76,weatherlink.com 1.10,2013-05-27 20:56:00,
2013-05-27 16:11:00,48.8,48.0,29.96,East,100,3.0,9.0,97,0.00,,,0.04,105,weatherlink.com 1.10,2013-05-27 21:11:00,
2013-05-27 16:26:00,48.7,48.0,29.96,SE,134,1.0,11.0,97,0.00,,,0.04,77,weatherlink.com 1.10,2013-05-27 21:26:00,
2013-05-27 16:41:00,48.8,48.0,29.95,NE,39,1.0,6.0,97,0.00,,,0.04,69,weatherlink.com 1.10,2013-05-27 21:41:00,
2013-05-27 16:56:00,48.7,48.0,29.94,ENE,65,2.0,6.0,97,0.00,,,0.04,95,weatherlink.com 1.10,2013-05-27 21:56:00,
2013-05-27 17:11:00,48.6,48.0,29.96,East,86,1.0,7.0,97,0.00,,,0.04,30,weatherlink.com 1.10,2013-05-27 22:11:00,
2013-05-27 17:26:00,48.5,48.0,29.95,SSE,159,1.0,4.0,97,0.00,,,0.04,18,weatherlink.com 1.10,2013-05-27 22:26:00,
2013-05-27 17:41:00,48.5,48.0,29.95,SSW,192,0.0,3.0,97,0.00,,,0.04,19,weatherlink.com 1.10,2013-05-27 22:41:00,
2013-05-27 17:56:00,48.5,48.0,29.95,SSW,192,0.0,4.0,97,0.00,,,0.04,18,weatherlink.com 1.10,2013-05-27 22:56:00,
2013-05-27 18:11:00,48.5,48.0,29.94,NNE,12,1.0,3.0,97,0.00,,,0.04,19,weatherlink.com 1.10,2013-05-27 23:11:00,
2013-05-27 18:26:00,48.6,48.0,29.93,SE,128,0.0,3.0,97,0.00,,,0.04,18,weatherlink.com 1.10,2013-05-27 23:26:00,
2013-05-27 18:41:00,48.7,48.0,29.94,ESE,102,1.0,3.0,97,0.00,,,0.04,14,weatherlink.com 1.10,2013-05-27 23:41:00,
2013-05-27 18:56:00,48.5,48.0,29.94,SSE,161,3.0,4.0,97,0.00,,,0.04,5,weatherlink.com 1.10,2013-05-27 23:56:00,
2013-05-27 19:11:00,48.6,48.0,29.94,South,186,0.0,3.0,97,0.00,,,0.04,5,weatherlink.com 1.10,2013-05-28 00:11:00,
2013-05-27 19:26:00,48.5,48.0,29.93,ENE,66,1.0,3.0,97,0.00,,,0.04,0,weatherlink.com 1.10,2013-05-28 00:26:00,
2013-05-27 19:41:00,48.3,48.0,29.92,NNE,32,1.0,4.0,97,0.00,,,0.04,0,weatherlink.com 1.10,2013-05-28 00:41:00,
2013-05-27 19:56:00,48.2,47.0,29.93,ENE,66,0.0,2.0,97,0.00,,,0.04,0,weatherlink.com 1.10,2013-05-28 00:56:00,
2013-05-27 20:11:00,48.6,48.0,29.93,North,360,0.0,3.0,98,0.00,,,0.04,0,weatherlink.com 1.10,2013-05-28 01:11:00,
2013-05-27 20:26:00,48.5,48.0,29.92,SW,215,0.0,5.0,97,0.00,,,0.04,0,weatherlink.com 1.10,2013-05-28 01:26:00,
2013-05-27 20:41:00,48.1,47.0,29.91,ESE,118,0.0,4.0,97,0.00,,,0.04,0,weatherlink.com 1.10,2013-05-28 01:41:00,
2013-05-27 20:56:00,48.1,48.0,29.90,WSW,238,1.0,4.0,98,0.00,,,0.04,0,weatherlink.com 1.10,2013-05-28 01:56:00,
2013-05-27 21:11:00,48.1,48.0,29.91,SSW,213,1.0,4.0,98,0.00,,,0.04,0,weatherlink.com 1.10,2013-05-28 02:11:00,
2013-05-27 21:26:00,48.0,48.0,29.90,NNE,28,1.0,4.0,98,0.00,,,0.04,0,weatherlink.com 1.10,2013-05-28 02:26:00,
2013-05-27 21:41:00,48.2,48.0,29.91,East,90,0.0,2.0,98,0.00,,,0.04,0,weatherlink.com 1.10,2013-05-28 02:41:00,
2013-05-27 21:56:00,48.2,48.0,29.91,SSW,206,0.0,3.0,98,0.00,,,0.04,0,weatherlink.com 1.10,2013-05-28 02:56:00,
2013-05-27 22:11:00,48.2,48.0,29.91,SSE,150,0.0,4.0,98,0.00,,,0.04,0,weatherlink.com 1.10,2013-05-28 03:11:00,
2013-05-27 22:26:00,48.5,48.0,29.90,SSW,210,0.0,2.0,97,0.00,,,0.04,0,weatherlink.com 1.10,2013-05-28 03:26:00,
2013-05-27 22:43:00,48.7,48.0,29.91,North,360,1.0,3.0,98,0.00,,,0.04,0,weatherlink.com 1.10,2013-05-28 03:43:00,
2013-05-27 22:56:00,48.7,48.0,29.92,SW,215,0.0,2.0,98,0.00,,,0.04,0,weatherlink.com 1.10,2013-05-28 03:56:00,
2013-05-27 23:11:00,48.6,48.0,29.92,South,175,0.0,3.0,98,0.00,,,0.04,0,weatherlink.com 1.10,2013-05-28 04:11:00,
2013-05-27 23:26:00,48.7,48.0,29.92,South,173,0.0,2.0,98,0.00,,,0.04,0,weatherlink.com 1.10,2013-05-28 04:26:00,
2013-05-27 23:41:00,48.9,48.0,29.90,South,173,0.0,2.0,98,0.00,,,0.04,0,weatherlink.com 1.10,2013-05-28 04:41:00,
2013-05-27 23:56:00,49.1,49.0,29.90,South,184,0.0,2.0,98,0.00,,,0.04,0,weatherlink.com 1.10,2013-05-28 04:56:00,